GW0996 Weather Reports


time (UTC)temp
C
wind
direction
speed
KPH
gust
KPH
rain 1hr
cm
rain 24hr
cm
rain mn
cm
humidity
%
barometer
mb
20260509055059 12 332 0.0 0.0 0.00 0.00 0.00 96 1017.2
20260509054059 12 332 0.0 0.0 0.00 0.00 0.00 96 1017.1
20260509053601 12 332 0.0 0.0 0.00 0.00 0.00 96 1016.9
20260509053100 12 332 0.0 0.0 0.00 0.00 0.00 96 1017.0
20260509052601 12 332 0.0 0.0 0.00 0.00 0.00 96 1016.8
20260509051602 11 332 0.0 0.0 0.00 0.00 0.00 96 1016.7
20260509051058 11 332 0.0 1.6 0.00 0.00 0.00 96 1017.0
20260509050601 11 332 0.0 1.6 0.00 0.00 0.00 95 1016.9
20260509050059 11 332 0.0 3.2 0.00 0.00 0.00 95 1016.6
20260509045558 11 332 0.0 3.2 0.00 0.00 0.00 95 1016.4
20260509045048 11 334 0.0 0.0 0.00 0.00 0.00 95 1016.7
20260509044547 11 311 0.0 0.0 0.00 0.00 0.00 95 1016.6
20260509044049 11 299 0.0 0.0 0.00 0.00 0.00 95 1016.6
20260509043550 11 300 0.0 0.0 0.00 0.00 0.00 95 1016.4
20260509043049 11 300 0.0 0.0 0.00 0.00 0.00 95 1016.3
20260509042547 11 300 0.0 0.0 0.00 0.00 0.00 96 1016.3
20260509042050 11 300 0.0 0.0 0.00 0.00 0.00 95 1016.4
20260509041548 11 300 0.0 0.0 0.00 0.00 0.00 95 1016.0
20260509041046 10 300 0.0 0.0 0.00 0.00 0.00 95 1016.1
20260509040548 10 300 0.0 0.0 0.00 0.00 0.00 95 1016.2
20260509035535 10 300 0.0 0.0 0.00 0.00 0.00 95 1016.1
20260509035035 10 300 0.0 0.0 0.00 0.00 0.00 95 1016.2
20260509034534 10 300 0.0 0.0 0.00 0.00 0.00 95 1015.9
20260509034022 10 300 0.0 1.6 0.00 0.00 0.00 95 1015.8
20260509033522 10 300 0.0 1.6 0.00 0.00 0.00 95 1016.0
20260509033002 10 300 0.0 1.6 0.00 0.00 0.00 95 1016.0
20260509032500 10 300 0.0 0.0 0.00 0.00 0.00 95 1015.9
20260509032000 10 300 0.0 0.0 0.00 0.00 0.00 95 1015.9
20260509031450 10 300 0.0 0.0 0.00 0.00 0.00 95 1015.8
20260509030946 10 300 0.0 0.0 0.00 0.00 0.00 95 1015.9
20260509030449 10 300 0.0 0.0 0.00 0.00 0.00 95 1015.8
20260509025949 10 300 0.0 0.0 0.00 0.00 0.00 95 1016.0
20260509025449 10 300 0.0 0.0 0.00 0.00 0.00 95 1015.9
20260509024946 10 300 0.0 0.0 0.00 0.00 0.00 95 1015.9
20260509024449 10 300 0.0 0.0 0.00 0.00 0.00 94 1015.8
20260509023946 10 300 0.0 0.0 0.00 0.00 0.00 95 1015.8
20260509023447 10 300 0.0 0.0 0.00 0.00 0.00 95 1015.8
20260509022947 10 300 0.0 0.0 0.00 0.00 0.00 95 1015.7
20260509021947 10 300 0.0 0.0 0.00 0.00 0.00 94 1015.7
20260509021449 10 300 0.0 0.0 0.00 0.00 0.00 94 1015.7
20260509020445 10 300 0.0 0.0 0.00 0.00 0.00 94 1015.8
20260509015934 10 300 0.0 0.0 0.00 0.00 0.00 94 1015.8
20260509015435 10 300 0.0 0.0 0.00 0.00 0.00 94 1015.7
20260509014937 10 300 0.0 0.0 0.00 0.00 0.00 94 1015.8
20260509014422 10 300 0.0 0.0 0.00 0.00 0.00 94 1015.9
20260509013926 10 300 0.0 0.0 0.00 0.00 0.00 94 1015.8
20260509013359 11 300 0.0 0.0 0.00 0.00 0.00 94 1015.8
20260509012859 11 300 0.0 0.0 0.00 0.00 0.00 94 1015.8
20260509012402 11 300 0.0 0.0 0.00 0.00 0.00 94 1015.9
20260509011847 11 300 0.0 3.2 0.00 0.00 0.00 93 1015.7
20260509011346 11 300 0.0 3.2 0.00 0.00 0.00 94 1015.7
20260509010850 11 299 1.6 1.6 0.00 0.00 0.00 94 1015.7
20260509010348 11 298 0.0 1.6 0.00 0.00 0.00 94 1015.8
20260509005350 11 298 0.0 1.6 0.00 0.00 0.00 93 1015.8
20260509004345 11 297 0.0 1.6 0.00 0.00 0.00 93 1015.6
20260509003851 11 297 0.0 1.6 0.00 0.00 0.00 93 1015.7
20260509003346 11 297 1.6 1.6 0.00 0.00 0.00 94 1015.7
20260509002846 11 296 0.0 0.0 0.00 0.00 0.00 93 1015.4
20260509002348 11 295 0.0 0.0 0.00 0.00 0.00 93 1015.4
20260509001847 11 296 0.0 0.0 0.00 0.00 0.00 93 1015.5
20260509000826 11 299 0.0 0.0 0.00 0.00 0.00 92 1015.4
20260509000325 11 306 0.0 0.0 0.00 0.00 0.00 92 1015.5
20260508235822 12 306 0.0 0.0 0.00 0.00 0.00 92 1015.3
20260508235311 12 306 0.0 0.0 0.00 0.00 0.00 92 1015.3
20260508234811 12 306 0.0 0.0 0.00 0.00 0.00 92 1015.6
20260508234301 12 306 0.0 0.0 0.00 0.00 0.00 92 1015.4
20260508233801 12 306 0.0 0.0 0.00 0.00 0.00 92 1015.4
20260508233258 12 306 0.0 0.0 0.00 0.00 0.00 92 1015.4
20260508232258 12 306 0.0 0.0 0.00 0.00 0.00 92 1015.5
20260508231800 12 306 0.0 0.0 0.00 0.00 0.00 92 1015.6
20260508231307 12 306 0.0 0.0 0.00 0.00 0.00 91 1015.5
20260508230759 12 306 0.0 0.0 0.00 0.00 0.00 91 1015.8
20260508230258 13 306 0.0 4.8 0.00 0.00 0.00 91 1015.4
20260508225258 13 337 1.6 3.2 0.00 0.00 0.00 92 1015.6
20260508223759 13 43 0.0 0.0 0.00 0.00 0.00 91 1015.5
20260508223259 13 42 0.0 1.6 0.00 0.00 0.00 90 1015.5
20260508222801 13 42 0.0 1.6 0.00 0.00 0.00 91 1015.3
20260508222250 13 76 0.0 0.0 0.00 0.00 0.00 90 1015.4
20260508221748 13 76 0.0 0.0 0.00 0.00 0.00 90 1015.5
20260508221254 13 76 0.0 0.0 0.00 0.00 0.00 90 1015.3
20260508220747 13 75 0.0 0.0 0.00 0.00 0.00 89 1015.4
20260508220254 13 76 0.0 1.6 0.00 0.00 0.00 89 1015.4
20260508215747 14 79 0.0 3.2 0.00 0.00 0.00 90 1015.4
20260508214747 13 104 0.0 1.6 0.00 0.00 0.00 90 1015.5
20260508214253 14 117 0.0 1.6 0.00 0.00 0.00 88 1015.4
20260508213745 14 114 0.0 1.6 0.00 0.00 0.00 88 1015.5
20260508213252 14 114 0.0 0.0 0.00 0.00 0.00 87 1015.6
20260508212746 14 114 0.0 1.6 0.00 0.00 0.00 87 1015.1
20260508212250 15 114 0.0 1.6 0.00 0.00 0.00 88 1015.3
20260508211748 15 115 0.0 0.0 0.00 0.00 0.00 87 1015.2
20260508211252 15 115 0.0 0.0 0.00 0.00 0.00 86 1015.2
20260508210748 15 115 0.0 0.0 0.00 0.00 0.00 86 1015.2
20260508205747 15 115 0.0 0.0 0.00 0.00 0.00 85 1015.3
20260508205251 15 115 0.0 0.0 0.00 0.00 0.00 84 1015.1
20260508204749 16 115 0.0 0.0 0.00 0.00 0.00 83 1015.2
20260508204250 16 115 0.0 0.0 0.00 0.00 0.00 82 1015.1
20260508203747 16 115 0.0 0.0 0.00 0.00 0.00 80 1015.3
20260508203250 16 115 0.0 1.6 0.00 0.00 0.00 80 1015.3
20260508202750 16 115 0.0 1.6 0.00 0.00 0.00 80 1015.5
20260508202251 16 129 0.0 1.6 0.00 0.00 0.00 81 1015.2
20260508201750 15 130 0.0 1.6 0.00 0.00 0.00 82 1015.2
20260508201252 16 129 0.0 0.0 0.00 0.00 0.00 82 1015.1
20260508195749 16 128 0.0 0.0 0.00 0.00 0.00 80 1015.2
20260508195250 16 128 0.0 1.6 0.00 0.00 0.00 79 1015.1
20260508194751 16 128 0.0 1.6 0.00 0.00 0.00 79 1015.1
20260508194248 16 128 0.0 1.6 0.00 0.00 0.00 78 1015.0
20260508193746 16 128 0.0 3.2 0.00 0.00 0.00 77 1014.9
20260508193227 16 127 0.0 3.2 0.00 0.00 0.00 77 1014.9
20260508192721 16 122 0.0 3.2 0.00 0.00 0.00 77 1014.7
20260508192225 17 122 0.0 1.6 0.00 0.00 0.00 77 1014.7
20260508191709 17 142 0.0 4.8 0.00 0.00 0.00 77 1014.6
20260508190700 17 154 0.0 1.6 0.00 0.00 0.00 76 1014.6
20260508190158 17 161 0.0 0.0 0.00 0.00 0.00 77 1014.4
20260508185659 17 161 0.0 1.6 0.00 0.00 0.00 77 1014.3
20260508185157 17 161 0.0 1.6 0.00 0.00 0.00 77 1014.4
20260508184658 17 162 0.0 0.0 0.00 0.00 0.00 77 1014.2
20260508184158 17 161 0.0 0.0 0.00 0.00 0.00 78 1014.1
20260508183656 17 161 0.0 0.0 0.00 0.00 0.00 78 1014.1
20260508183157 17 161 0.0 0.0 0.00 0.00 0.00 77 1014.0
20260508182658 17 161 0.0 0.0 0.00 0.00 0.00 78 1014.0
20260508182156 17 161 0.0 0.0 0.00 0.00 0.00 77 1013.8
20260508181656 17 161 0.0 0.0 0.00 0.00 0.00 76 1013.6
20260508181201 17 161 0.0 0.0 0.00 0.00 0.00 77 1013.6
20260508180202 18 161 0.0 1.6 0.00 0.00 0.00 75 1013.4
20260508175658 18 161 0.0 3.2 0.00 0.00 0.00 74 1013.1
20260508175159 18 135 1.6 3.2 0.00 0.00 0.00 74 1013.2
20260508174656 18 149 1.6 1.6 0.00 0.00 0.00 72 1013.4
20260508174202 18 150 0.0 0.0 0.00 0.00 0.00 71 1013.2
20260508173657 18 150 0.0 0.0 0.00 0.00 0.00 70 1013.4
20260508173158 18 150 0.0 3.2 0.00 0.00 0.00 70 1013.2
20260508172658 18 149 0.0 3.2 0.00 0.00 0.00 69 1013.3
20260508172158 19 197 0.0 1.6 0.00 0.00 0.00 67 1013.3
20260508171658 19 196 0.0 1.6 0.00 0.00 0.00 66 1012.9
20260508171159 19 211 0.0 1.6 0.00 0.00 0.00 65 1013.1
20260508170644 20 261 0.0 0.0 0.00 0.00 0.00 63 1013.1
20260508170146 20 263 0.0 0.0 0.00 0.00 0.00 63 1013.1
20260508165646 20 263 0.0 0.0 0.00 0.00 0.00 62 1012.9
20260508164634 20 263 0.0 1.6 0.00 0.00 0.00 64 1013.0
20260508164110 20 263 0.0 1.6 0.00 0.00 0.00 62 1012.8
20260508163609 20 288 0.0 1.6 0.00 0.00 0.00 62 1012.9
20260508163108 20 308 0.0 1.6 0.00 0.00 0.00 64 1012.7
20260508162600 20 318 0.0 1.6 0.00 0.00 0.00 62 1012.5
20260508162058 20 318 0.0 4.8 0.00 0.00 0.00 64 1012.3
20260508161058 20 311 0.0 3.2 0.00 0.00 0.00 62 1012.5
20260508160558 20 308 0.0 3.2 0.00 0.00 0.00 63 1012.7
20260508160057 20 307 0.0 3.2 0.00 0.00 0.00 63 1012.4
20260508155601 20 308 0.0 6.4 0.00 0.00 0.00 65 1012.3
20260508155048 20 311 0.0 9.7 0.00 0.00 0.00 64 1012.1
20260508154547 20 319 4.8 9.7 0.00 0.00 0.00 61 1012.1
20260508154049 20 305 1.6 6.4 0.00 0.00 0.00 63 1012.3
20260508153051 20 315 0.0 9.7 0.00 0.00 0.00 63 1012.0
20260508152546 20 315 1.6 9.7 0.00 0.00 0.00 62 1012.0
20260508152049 21 308 1.6 4.8 0.00 0.00 0.00 63 1012.2
20260508151544 21 325 0.0 6.4 0.00 0.00 0.00 64 1012.1
20260508151048 21 308 3.2 6.4 0.00 0.00 0.00 62 1012.0
20260508150546 21 312 3.2 6.4 0.00 0.00 0.00 61 1012.2
20260508150047 21 339 0.0 3.2 0.00 0.00 0.00 61 1012.2
20260508145547 21 317 0.0 12.9 0.00 0.00 0.00 63 1012.2
20260508145049 21 307 0.0 12.9 0.00 0.00 0.00 62 1012.2
20260508144547 21 312 0.0 6.4 0.00 0.00 0.00 61 1012.1
20260508144049 21 296 1.6 9.7 0.00 0.00 0.00 60 1012.2
20260508143545 21 22 0.0 9.7 0.00 0.00 0.00 61 1012.2
20260508142544 21 334 0.0 11.3 0.00 0.00 0.00 60 1012.2
20260508142052 21 16 0.0 11.3 0.00 0.00 0.00 59 1012.1
20260508141546 21 321 0.0 9.7 0.00 0.00 0.00 62 1012.1
20260508140544 21 9 0.0 9.7 0.00 0.00 0.00 59 1012.2
20260508135544 21 312 1.6 4.8 0.00 0.00 0.00 60 1012.0
20260508135051 21 310 0.0 9.7 0.00 0.00 0.00 61 1011.9
20260508134547 21 330 4.8 9.7 0.00 0.00 0.00 57 1011.9
20260508134048 22 314 3.2 6.4 0.00 0.00 0.00 54 1012.2
20260508133546 22 314 3.2 4.8 0.00 0.00 0.00 52 1012.0
20260508133049 22 104 0.0 4.8 0.00 0.00 0.00 54 1012.0
20260508132544 22 148 1.6 4.8 0.00 0.00 0.00 55 1012.0
20260508132049 22 314 0.0 4.8 0.00 0.00 0.00 53 1012.0
20260508131545 22 211 0.0 6.4 0.00 0.00 0.00 52 1012.0
20260508131049 22 98 1.6 6.4 0.00 0.00 0.00 54 1012.1
20260508130545 22 123 0.0 4.8 0.00 0.00 0.00 55 1012.1
20260508130049 22 318 1.6 4.8 0.00 0.00 0.00 51 1012.1
20260508125546 22 138 0.0 4.8 0.00 0.00 0.00 53 1012.1
20260508124050 22 180 1.6 6.4 0.00 0.00 0.00 54 1012.0
20260508123548 22 316 1.6 9.7 0.00 0.00 0.00 50 1011.9
20260508123048 22 315 6.4 9.7 0.00 0.00 0.00 50 1012.0
20260508122545 22 315 1.6 4.8 0.00 0.00 0.00 52 1012.1
20260508121546 22 333 0.0 4.8 0.00 0.00 0.00 54 1012.2
20260508121045 22 309 1.6 6.4 0.00 0.00 0.00 53 1012.3
20260508120546 22 319 1.6 6.4 0.00 0.00 0.00 55 1012.2
20260508120047 22 314 3.2 4.8 0.00 0.00 0.00 53 1012.1
20260508115546 22 296 0.0 0.0 0.00 0.00 0.00 56 1012.1
20260508114534 22 295 0.0 1.6 0.00 0.00 0.00 51 1012.1
20260508114006 22 310 0.0 0.0 0.00 0.00 0.00 51 1012.3
20260508113508 22 314 0.0 0.0 0.00 0.00 0.00 53 1012.1
20260508112457 22 313 0.0 0.0 0.00 0.00 0.00 54 1012.0
20260508111958 22 313 0.0 0.0 0.00 0.00 0.00 54 1012.2
20260508111457 22 313 0.0 0.0 0.00 0.00 0.00 52 1012.1
20260508110956 22 313 0.0 4.8 0.00 0.00 0.00 54 1012.1
20260508110458 22 313 0.0 4.8 0.00 0.00 0.00 55 1012.2
20260508105957 22 301 3.2 3.2 0.00 0.00 0.00 56 1012.1
20260508105456 22 296 0.0 3.2 0.00 0.00 0.00 59 1012.2
20260508104958 22 190 0.0 1.6 0.00 0.00 0.00 60 1012.1
20260508104454 21 190 0.0 1.6 0.00 0.00 0.00 56 1012.1
20260508103457 21 180 0.0 0.0 0.00 0.00 0.00 57 1012.2
20260508102944 21 180 0.0 0.0 0.00 0.00 0.00 65 1012.5
20260508102447 20 180 0.0 0.0 0.00 0.00 0.00 65 1012.4
20260508101944 20 180 0.0 0.0 0.00 0.00 0.00 64 1012.3
20260508101445 20 180 0.0 0.0 0.00 0.00 0.00 61 1012.1
20260508100949 20 180 0.0 0.0 0.00 0.00 0.00 63 1012.2
20260508100443 20 180 0.0 0.0 0.00 0.00 0.00 65 1012.2
20260508095445 20 180 0.0 0.0 0.00 0.00 0.00 64 1012.3
20260508094442 19 180 0.0 1.6 0.00 0.00 0.00 62 1012.1
20260508093946 19 151 0.0 1.6 0.00 0.00 0.00 65 1012.1
20260508093443 19 155 1.6 1.6 0.00 0.00 0.00 66 1012.2
20260508092944 19 208 0.0 3.2 0.00 0.00 0.00 68 1012.2
20260508091945 18 133 0.0 1.6 0.00 0.00 0.00 70 1012.0
20260508091442 18 160 0.0 1.6 0.00 0.00 0.00 72 1012.0
20260508085445 18 160 0.0 4.8 0.00 0.00 0.00 70 1011.9
20260508084444 18 137 1.6 6.4 0.00 0.00 0.00 70 1011.8
20260508083947 18 129 0.0 6.4 0.00 0.00 0.00 70 1011.8
20260508083443 18 121 3.2 4.8 0.00 0.00 0.00 70 1011.8
20260508082948 18 129 0.0 3.2 0.00 0.00 0.00 69 1011.6
20260508082446 18 173 0.0 3.2 0.00 0.00 0.00 71 1011.9
20260508081946 18 140 0.0 0.0 0.00 0.00 0.00 66 1011.6
20260508080949 18 132 0.0 4.8 0.00 0.00 0.00 66 1011.7
20260508075410 18 311 0.0 1.6 0.00 0.00 0.00 67 1011.5
20260508074857 17 311 0.0 0.0 0.00 0.00 0.00 68 1011.5
20260508074358 17 312 0.0 0.0 0.00 0.00 0.00 68 1011.5
20260508073357 17 344 0.0 0.0 0.00 0.00 0.00 72 1011.8
20260508072858 16 344 0.0 0.0 0.00 0.00 0.00 77 1011.4
20260508071357 16 344 0.0 1.6 0.00 0.00 0.00 76 1011.4
20260508070857 15 344 0.0 1.6 0.00 0.00 0.00 79 1011.7
20260508070356 14 337 0.0 0.0 0.00 0.00 0.00 79 1011.7
20260508065859 14 338 0.0 0.0 0.00 0.00 0.00 80 1011.6
20260508065356 13 338 0.0 0.0 0.00 0.00 0.00 85 1011.6
20260508064858 13 338 0.0 0.0 0.00 0.00 0.00 85 1011.5
20260508064357 12 338 0.0 1.6 0.00 0.00 0.00 86 1011.7
20260508063855 12 338 0.0 1.6 0.00 0.00 0.00 87 1011.7
20260508063356 12 337 0.0 3.2 0.00 0.00 0.00 85 1011.8
20260508062858 12 337 0.0 3.2 0.00 0.00 0.00 86 1011.8
20260508062358 11 337 1.6 1.6 0.00 0.00 0.00 87 1011.8
20260508061854 11 338 0.0 0.0 0.00 0.00 0.00 88 1011.8
20260508061356 11 338 0.0 0.0 0.00 0.00 0.00 88 1011.7
20260508060855 11 337 0.0 0.0 0.00 0.00 0.00 88 1011.7
20260508055857 11 338 0.0 0.0 0.00 0.00 0.00 89 1011.7